Flag for Bahamas Weather past 2 weeks in Nassau, Bahamas

Now
90 °F

Scattered clouds.


Feels Like: 100 °F
Forecast: 84 / 89 °F
Wind: 12 mph from Northeast

Location: Nassau Airport

Current Time: Aug 23, 2014 at 4:26:23 PM

Latest Report: Aug 23, 2014 at 4:00 PM


Visibility: N/A

Pressure: 29.89 "Hg

Humidity: 63%

Dew point: 75 °F

Location of NassauLocation

Historic Weather in Nassau — Graph

°F

Nassau temperature yesterday

Maximum temperature yesterday: 90 °F (at 11:00 AM)
Minimum temperature yesterday: 81 °F (at 5:00 AM)
Average temperature yesterday: 85 °F

Past Weeks' High & Low Weather Summary

 TemperatureHumidityPressure
High95 °F (Aug 14, 2:00 PM)100% (Aug 11, 1:00 PM)30.14 "Hg (Aug 11, 1:00 PM)
Low36 °F (Aug 11, 1:00 PM)52% (Aug 14, 3:00 PM)29.91 "Hg (Aug 23, 5:00 AM)
Average85 °F72%30.06 "Hg
* Reported Aug 8 3:00 PM — Aug 23 3:00 PM, Nassau, Weather by CustomWeather, © 2014

Note: Actual official high and low records may vary slightly from our data, if they occured in-between our weather recording intervals... More about our weather records

Advertising

Nassau weather history for previous 24 hours

 ConditionsComfort  
Time TempWeatherWind HumidityBarometerVisibility
3:00 PM
Aug 23
90 °FScattered showers. Scattered clouds.12 mph67%29.91 "HgN/A
2:00 PM90 °FScattered clouds.16 mph67%29.93 "HgN/A
1:00 PM90 °FScattered clouds.16 mph63%29.96 "HgN/A
12:00 PM88 °FScattered clouds.16 mph70%29.95 "HgN/A
11:00 AM88 °FScattered clouds.14 mph70%29.96 "HgN/A
10:00 AM86 °FScattered clouds.14 mph70%29.94 "HgN/A
9:00 AM84 °FPassing clouds.5 mph79%29.94 "HgN/A
8:00 AM82 °FScattered clouds.5 mph84%29.93 "HgN/A
7:00 AM82 °FScattered showers. Partly cloudy.5 mph79%29.92 "HgN/A
6:00 AM82 °FPassing clouds.3 mph79%29.91 "HgN/A
5:00 AM82 °FPassing clouds.5 mph84%29.91 "HgN/A
4:00 AM82 °FPassing clouds.No wind79%29.92 "HgN/A
2:00 AM82 °FPassing clouds.3 mph84%29.96 "HgN/A
1:00 AM82 °FPassing clouds.5 mph79%29.98 "HgN/A
12:00 AM84 °FPassing clouds.6 mph74%30.00 "HgN/A
11:00 PM
Aug 22
84 °FPassing clouds.5 mph79%30.01 "HgN/A
10:00 PM84 °FRain showers. Passing clouds.6 mph74%30.01 "HgN/A
9:00 PM84 °FPassing clouds.7 mph74%30.01 "HgN/A
8:00 PM84 °FPassing clouds.8 mph79%30.00 "HgN/A
7:00 PM86 °FThunderstorms. Passing clouds.7 mph70%30.00 "HgN/A
6:18 PM86 °FThunderstorms. Scattered clouds.9 mph70%30.00 "HgN/A
6:00 PM86 °FScattered clouds.9 mph70%30.00 "HgN/A
5:00 PM86 °FScattered showers. Scattered clouds.8 mph70%30.01 "HgN/A
4:00 PM88 °FThunderstorms. Partly sunny.10 mph66%30.01 "HgN/A
Weather by CustomWeather, © 2014

See weather overviewHow to use our weather pages